Location: Newark
(42.7133°N, 87.7910°W)
Time: 16:33:04
(UTC+00:00)

Vanguard 1 Rocket - Visible Passes

Search period start: 17 September 2019 00:00
Search period end: 27 September 2019 00:00
Orbit: 652 x 4225 km, 34.3° (Epoch: 15 September)

Date Brightness Start Highest point End Pass type
(mag) Time Alt. Az. Time Alt. Az. Time Alt. Az.
17 Sep 9.8 00:29:19 10° SW 00:47:19 47° SSE 00:56:21 13° E visible
17 Sep 8.7 03:00:49 10° WSW 03:13:38 52° SSW 03:13:38 52° SSW visible
18 Sep 8.9 01:45:55 10° WSW 02:02:19 55° S 02:06:22 37° ESE visible
18 Sep 9.8 04:17:42 10° W 04:23:38 27° WSW 04:23:38 27° WSW visible
19 Sep 9.7 00:30:51 10° WSW 00:49:58 52° S 00:59:05 15° E visible
19 Sep 8.8 03:03:06 10° W 03:16:21 52° SSW 03:16:21 52° SSW visible
20 Sep 8.9 01:47:57 10° WSW 02:05:01 58° S 02:09:03 39° SE visible
20 Sep 9.9 04:20:14 10° W 04:26:20 26° WSW 04:26:20 26° WSW visible
21 Sep 9.7 00:32:34 10° WSW 00:52:36 57° S 01:01:45 16° E visible
21 Sep 9.0 03:05:25 10° W 03:19:01 50° SSW 03:19:01 50° SSW visible
22 Sep 9.0 01:50:04 10° W 02:07:41 59° S 02:11:41 40° SE visible
22 Sep 10.0 04:22:50 10° W 04:28:57 25° WSW 04:28:57 25° WSW visible
23 Sep 9.7 00:34:27 10° WSW 00:55:12 61° S 01:04:21 18° ESE visible
23 Sep 9.1 03:07:46 10° W 03:21:37 47° SSW 03:21:37 47° SSW visible
24 Sep 9.1 01:52:14 10° W 02:10:17 58° SSW 02:14:17 41° SE visible
24 Sep 10.1 04:25:31 10° W 04:31:33 23° WSW 04:31:33 23° WSW visible
25 Sep 9.7 00:36:27 10° WSW 00:57:46 63° S 01:06:57 20° ESE visible
25 Sep 9.3 03:10:08 10° W 03:24:13 43° SSW 03:24:13 43° SSW visible
26 Sep 9.2 01:54:27 10° W 02:12:49 56° SSW 02:16:53 41° SSE visible
26 Sep 10.3 04:28:22 10° W 04:34:09 20° WSW 04:34:09 20° WSW visible
